WGS F5 (USA 243)

Last updated on Dec. 2, 2020, 6:18 a.m. UTC

1 39168U 13024A   20336.72579587 -.00000263  00000-0  00000-0 0  9993
2 39168   0.0177 345.7260 0000319 281.8026  12.3161  1.00271649 26889
UTC
Height (km)
Latitude
Longitude
Inclination
Orbital Period
UTC large
Height (km)
Speed (km/s)
/
Latitude / Longitude
Inclination (degrees)
Orbital Period (minutes)
Azimuth
Elevation
Range (km)
Doppler Factor
iOS Compass Heading
iOS Angle

Next 30 passes for location: Hong Kong

Rise time Rise Azimuth (degrees) Set time Set Azimuth (degrees) Duration Max altitude (degrees)

No matching passes for this satellites